Flag Weather past 2 weeks in Ulaanbaatar, Mongolia

Now
14 °F

Sunny.


Feels Like: 5 °F
Forecast: -4 / 20 °F
Wind: 6 mph from Southwest

Location: Ulan-Bator

Current Time: Nov 22, 2014 at 6:40:42 PM

Latest Report: Nov 22, 2014 at 6:00 PM


Visibility: 10 mi

Pressure: 29.83 "Hg

Humidity: 48%

Dew point: -2 °F

Location of UlaanbaatarLocation

Historic Weather in Ulaanbaatar — Graph

°F

Ulaanbaatar temperature yesterday

Maximum temperature yesterday: 19 °F (at 3:00 PM)
Minimum temperature yesterday: -4 °F (at 11:30 PM)
Average temperature yesterday: 9 °F

Past Weeks' High & Low Weather Summary

 TemperatureHumidityPressure
High41 °F (Nov 8, 3:00 PM)85% (Nov 8, 6:30 AM)30.42 "Hg (Nov 8, 6:30 AM)
Low-9 °F (Nov 22, 5:30 AM)19% (Nov 9, 4:00 PM)29.53 "Hg (Nov 19, 2:30 PM)
Average13 °F60%30.10 "Hg
* Reported Nov 7 5:00 PM — Nov 22 5:30 PM, Ulaanbaatar, Weather by CustomWeather, © 2014

Note: Actual official high and low records may vary slightly from our data, if they occured in-between our weather recording intervals... More about our weather records

Advertising

Ulaanbaatar weather history for previous 24 hours

 ConditionsComfort  
Time TempWeatherWind HumidityBarometerVisibility
5:30 PM
Nov 22
16 °FPartly sunny.6 mph45%29.80 "HgN/A
5:00 PM19 °FPartly sunny.3 mph38%29.80 "HgN/A
4:30 PM21 °FScattered clouds.3 mph38%29.80 "HgN/A
4:00 PM21 °FPartly sunny.3 mph38%29.80 "HgN/A
3:30 PM19 °FScattered clouds.3 mph38%29.80 "HgN/A
3:00 PM21 °FScattered clouds.6 mph38%29.80 "HgN/A
2:30 PM19 °FPartly sunny.3 mph38%29.80 "HgN/A
2:00 PM19 °FPartly sunny.1 mph42%29.80 "HgN/A
1:30 PM18 °FPartly sunny.3 mph45%29.80 "Hg5 mi
1:00 PM16 °FPartly sunny.1 mph45%29.83 "Hg4 mi
12:30 PM14 °FPartly sunny.1 mph48%29.83 "Hg4 mi
12:00 PM10 °FPartly sunny.No wind56%29.83 "Hg2 mi
11:30 AM9 °FPartly sunny.3 mph56%29.86 "Hg2 mi
11:00 AM7 °FClear.No wind61%29.86 "Hg3 mi
10:30 AM3 °FClear.1 mph66%29.86 "Hg4 mi
10:00 AM1 °FClear.1 mph71%29.86 "Hg4 mi
9:30 AM-2 °FClear.1 mph77%29.86 "Hg5 mi
9:00 AM-6 °FClear.1 mph70%29.86 "Hg5 mi
8:30 AM-9 °FClear.1 mph77%29.86 "Hg10 mi
8:00 AM-9 °FClear.No wind77%29.86 "Hg10 mi
7:30 AM-8 °FClear.No wind77%29.86 "Hg10 mi
7:00 AM-9 °FClear.1 mph77%29.86 "Hg10 mi
6:30 AM-8 °FClear.1 mph77%29.86 "Hg10 mi
5:30 AM-9 °FClear.1 mph70%29.86 "Hg10 mi
5:00 AM-8 °FClear.1 mph77%29.86 "Hg10 mi
4:00 AM-6 °FClear.No wind77%29.89 "Hg10 mi
3:00 AM-6 °FClear.No wind70%29.92 "Hg10 mi
2:00 AM-6 °FClear.No wind77%29.92 "Hg10 mi
1:00 AM-2 °FClear.1 mph71%29.95 "Hg10 mi
12:00 AM0 °FClear.1 mph71%29.95 "Hg10 mi
11:30 PM
Nov 21
-4 °FClear.No wind77%29.98 "Hg10 mi
11:00 PM0 °FClear.1 mph71%29.98 "Hg10 mi
10:30 PM1 °FClear.1 mph65%29.98 "Hg10 mi
10:00 PM1 °FClear.3 mph65%29.98 "Hg10 mi
9:30 PM3 °FClear.No wind66%29.98 "Hg10 mi
9:00 PM5 °FClear.3 mph55%29.98 "Hg10 mi
8:30 PM10 °FClear.No wind52%29.98 "Hg10 mi
8:00 PM7 °FClear.6 mph51%29.98 "Hg10 mi
7:30 PM10 °FClear.8 mph47%29.98 "Hg10 mi
7:00 PM10 °FClear.6 mph47%29.98 "Hg10 mi
6:30 PM9 °FClear.6 mph47%29.98 "Hg10 mi
6:00 PM9 °FSunny.6 mph47%29.98 "Hg10 mi
Weather by CustomWeather, © 2014

See weather overviewHow to use our weather pages